AAL2 VTSM-VTCT

Flight info

Callsign AAL2
Flight time N/A
Altitude 37000
Route ENRAG1A ENRAG W32 REGOS A464 BKK W9 PSL W22 BENVI
Aircraft A321/M-SDE3FGHIRWY/LB1

Departure

Time 2026-04-30 11:50
Airport Samui International Airport (VTSM)

Arrival

Time N/A
Airport Mae Fah Luang - Chiang Rai International Airport (VTCT)
Time Latitude Longitude Altitude Speed Heading
2026-04-30 11:32 9.55200 100.06339 46 ft 0 kts 84°
2026-04-30 11:39 9.55199 100.06331 46 ft 2 kts 84°
2026-04-30 11:39 9.55193 100.06309 42 ft 4 kts 39°
2026-04-30 11:40 9.55170 100.06302 44 ft 4 kts 355°
2026-04-30 11:40 9.55159 100.06303 40 ft 1 kts 354°
2026-04-30 11:42 9.55165 100.06302 45 ft 4 kts 354°
2026-04-30 11:42 9.55189 100.06270 42 ft 11 kts 265°
2026-04-30 11:43 9.55242 100.06209 40 ft 14 kts 357°
2026-04-30 11:43 9.55337 100.06202 39 ft 14 kts 354°
2026-04-30 11:43 9.55431 100.06193 38 ft 13 kts 354°
2026-04-30 11:43 9.55528 100.06183 37 ft 17 kts 354°
2026-04-30 11:44 9.55647 100.06196 45 ft 12 kts 15°
2026-04-30 11:44 9.55709 100.06184 46 ft 7 kts 300°
2026-04-30 11:44 9.55689 100.06165 46 ft 3 kts 200°
2026-04-30 11:44 9.55670 100.06167 46 ft 0 kts 172°
2026-04-30 11:45 9.55669 100.06168 46 ft 5 kts 172°
2026-04-30 11:45 9.55266 100.06215 40 ft 93 kts 173°
2026-04-30 11:45 9.55015 100.06243 43 ft 0 kts 176°
2026-04-30 11:47 9.55012 100.06242 43 ft 2 kts 185°
2026-04-30 11:47 9.55016 100.06231 43 ft 2 kts 320°
2026-04-30 11:47 9.55084 100.06226 42 ft 9 kts 354°
2026-04-30 11:48 9.55127 100.06222 42 ft 9 kts 354°
2026-04-30 11:48 9.55195 100.06214 40 ft 10 kts 353°
2026-04-30 11:48 9.55273 100.06213 39 ft 13 kts
2026-04-30 11:48 9.55374 100.06212 39 ft 15 kts 355°
2026-04-30 11:49 9.55475 100.06204 38 ft 15 kts 355°
2026-04-30 11:49 9.55526 100.06189 37 ft 0 kts 269°
2026-04-30 11:49 9.55520 100.06184 37 ft 2 kts 218°
2026-04-30 11:49 9.55502 100.06184 38 ft 0 kts 173°
2026-04-30 11:50 9.55497 100.06184 38 ft 13 kts 173°
2026-04-30 11:50 9.55041 100.06233 43 ft 113 kts 174°
2026-04-30 11:50 9.54019 100.06339 281 ft 166 kts 172°
2026-04-30 11:50 9.52848 100.06512 1124 ft 174 kts 163°
2026-04-30 11:51 9.51703 100.06907 2130 ft 173 kts 155°
2026-04-30 11:51 9.50558 100.07394 2686 ft 185 kts 155°
2026-04-30 11:51 9.49309 100.07935 2863 ft 206 kts 155°
2026-04-30 11:51 9.47946 100.08519 3161 ft 217 kts 155°
2026-04-30 11:52 9.46729 100.09403 3591 ft 220 kts 126°
2026-04-30 11:52 9.46239 100.10852 4126 ft 223 kts 94°
2026-04-30 11:52 9.46229 100.12408 4685 ft 225 kts 91°
2026-04-30 11:52 9.46236 100.13995 5236 ft 226 kts 91°
2026-04-30 11:53 9.46261 100.15591 5800 ft 227 kts 86°
2026-04-30 11:53 9.46784 100.17102 6322 ft 233 kts 57°